This demonstration page uses our WeatherBlox Daily Observations layout. Learn more.

Left ArrowRight Arrow

41.12389, -100.76542

Hourly Observations for March 20, 2018

Temp ( °F °C ) Dew Point ( °F °C ) Humidity (%) Winds ( mph kmh ) Pressure ( in mb ) Visibility ( mi km ) Precip ( " mm )
12:51 am 00:51 Mostly Cloudy 25 -4 21 -6 86 86 Calm 30.21 1023 9 14 0.00 0.00
12:53 am 00:53 Mostly Cloudy 23 -5 21 -6.1 92 92 WNW 3 6 30.14 1021 9 14 0.00 0.00
1:53 am 01:53 Cloudy 25 -3.9 22 -5.6 88 88 WNW 5 7 30.13 1020 9 14 0.00 0.00
2:53 am 02:53 Cloudy 31 -0.6 25 -3.9 79 79 NW 9 15 30.11 1020 10 16 0.00 0.00
3:53 am 03:53 Partly Cloudy 28 -2.2 23 -5 81 81 NW 7 11 30.11 1020 10 16 0.00 0.00
4:53 am 04:53 Cloudy 29 -1.7 25 -3.9 85 85 NW 5 7 30.10 1019 10 16 0.00 0.00
5:21 am 05:21 Cloudy 30 -1.1 25 -3.9 82 82 NNW 5 7 30.15 1021 10 16 0.00 0.00
5:53 am 05:53 Cloudy 30 -1.1 26 -3.3 85 85 NW 6 9 30.07 1018 10 16 0.00 0.00
6:53 am 06:53 Cloudy 30 -1.1 26 -3.3 85 85 NW 6 9 30.08 1019 10 16 0.00 0.00
7:53 am 07:53 Cloudy 32 0 25 -3.9 75 75 NNW 7 11 30.08 1019 10 16 0.00 0.00
8:53 am 08:53 Mostly Cloudy 32 0 26 -3.3 79 79 NW 3 6 30.08 1019 10 16 0.00 0.00
9:03 am 09:03 Partly Cloudy 33 0.6 26 -3.3 75 75 NW 5 7 30.12 1020 10 16 0.00 0.00
9:53 am 09:53 Sunny 35 1.7 28 -2.2 76 76 W 6 9 30.08 1019 10 16 0.00 0.00
10:53 am 10:53 Mostly Sunny 38 3.3 29 -1.7 70 70 W 5 7 30.07 1018 10 16 0.00 0.00
11:53 am 11:53 Mostly Sunny 40 4.4 29 -1.7 65 65 W 6 9 30.06 1018 10 16 0.00 0.00
12:53 pm 12:53 Mostly Cloudy 44 6.7 29 -1.7 55 55 WNW 12 19 30.05 1018 N/A 0.00 0.00
1:53 pm 13:53 Mostly Cloudy 50 10 29 -1.7 44 44 NW 15 24 30.02 1017 10 16 0.00 0.00
2:53 pm 14:53 Mostly Cloudy 54 12.2 28 -2.2 37 37 NNW 14 22 29.96 1015 10 16 0.00 0.00
3:53 pm 15:53 Partly Cloudy 49 9.4 35 1.7 59 59 N 8 13 29.98 1015 10 16 0.02 0.51
4:53 pm 16:53 Partly Cloudy 50 10 34 1.1 54 54 WNW 12 19 29.98 1015 10 16 0.00 0.03
5:53 pm 17:53 Cloudy 47 8.3 31 -0.6 54 54 N 17 28 30.00 1016 10 16 0.00 0.03
6:00 pm 18:00 Cloudy 47 8.3 32 0 56 56 NNE 13 20 29.97 1015 10 16 0.00 0.00
6:53 pm 18:53 Partly Cloudy 48 8.9 28 -2.2 46 46 NNE 12 19 30.00 1016 10 16 0.00 0.00
7:53 pm 19:53 Sunny 42 5.6 27 -2.8 55 55 NNE 6 9 30.03 1017 10 16 0.00 0.00
8:53 pm 20:53 Clear 36 2.2 26 -3.3 67 67 N 7 11 30.06 1018 10 16 0.00 0.00
9:53 pm 21:53 Clear 32 0 26 -3.3 79 79 Calm 30.08 1019 10 16 0.00 0.00
10:53 pm 22:53 Clear 28 -2.2 22 -5.6 78 78 Calm 30.11 1020 10 16 0.00 0.00
11:53 pm 23:53 Clear 28 -2.2 24 -4.4 85 85 WNW 3 6 30.11 1020 10 16 0.00 0.00

Powered by AerisWeather